Miscellaneous Local Product
Issued by NWS Hastings, NE

Home | Current Version | Previous Version | Text Only | Print | Product List | Glossary On
Versions: 1 2 3 4 5 6 7 8 9 10 11 12 13 14 15 16 17 18 19 20 21 22 23 24 25 26 27 28 29 30 31 32 33 34 35 36 37 38 39 40 41 42 43 44 45 46 47 48 49 50
756
AXUS43 KGID 091602
MISGRI

GID CWA HOURLY WEATHER ROUNDUP
NATIONAL WEATHER SERVICE HASTINGS NE
1000 AM CST FRI DEC 09 2016

NOTE: "FAIR" INDICATES FEW OR NO CLOUDS BELOW 12,000 FEET WITH NO
SIGNIFICANT WEATHER AND/OR OBSTRUCTIONS TO VISIBILITY.

...SOUTH CENTRAL NEBRASKA...

CITY           SKY/WX    TMP DP  RH WIND       PRES   REMARKS
GRAND ISLAND   CLOUDY    14   8  77 SE14      30.50F WCI  -1
HASTINGS       CLOUDY    16   9  74 SE12      30.50S WCI   3
KEARNEY        CLOUDY    18   9  68 SE8       30.46S WCI   7
ORD            NOT AVBL
YORK           CLOUDY    14   9  79 SE8       30.56R WCI   3
AURORA         CLOUDY    14   8  76 SE12      30.53S WCI   0
LEXINGTON      CLOUDY    18   9  68 SE14      30.41R WCI   4
HOLDREGE       CLOUDY    17   9  72 SE10      30.42S WCI   4
HEBRON         CLOUDY    19  12  75 SE12      30.57S WCI   6

...NEBRASKA PANHANDLE...

CITY           SKY/WX    TMP DP  RH WIND       PRES   REMARKS
CHADRON        CLOUDY     4  -2  76 N7        30.29R WCI  -8
ALLIANCE       CLOUDY    14   6  70 SE5       30.17R WCI   6
SCOTTSBLUFF    CLOUDY    19   9  65 NE7       30.16R WCI  10
SIDNEY         CLOUDY    13   5  70 SW7       30.15R WCI   3

...WESTERN AND NORTH CENTRAL NEBRASKA...

CITY           SKY/WX    TMP DP  RH WIND       PRES   REMARKS
VALENTINE      LGT SNOW  11   4  73 SE10      30.36S WCI  -3
AINSWORTH      CLOUDY    12   6  77 SE8       30.39R WCI   0
ONEILL         CLOUDY    10   6  83 SE9       30.48F WCI  -3
BROKEN BOW     CLOUDY    12   7  80 SE10      30.40S WCI  -1
IMPERIAL       CLOUDY    17   9  70 S17G25    30.25F WCI   1
NORTH PLATTE   CLOUDY    17   6  62 S9        30.34R WCI   6
MCCOOK         CLOUDY    19   9  65 S16       30.36R WCI   4

...EASTERN NEBRASKA...

CITY           SKY/WX    TMP DP  RH WIND       PRES   REMARKS
NORFOLK        CLOUDY     8   3  80 SE5       30.56R WCI   0
SO SIOUX CITY  MOSUNNY   10   3  73 CALM      30.62F
TEKAMAH        CLOUDY    10   4  76 CALM      30.65R
COLUMBUS       CLOUDY    10   5  79 SE5       30.58F WCI   2
ALBION         CLOUDY    10   4  80 SE7       30.53F WCI  -2
OMAHA EPPLEY   PTSUNNY   12   6  77 CALM      30.65R
OFFUTT AFB     CLOUDY    13   9  83 CALM      30.64R
MILLARD        CLOUDY    16   8  73 CALM      30.64R
LINCOLN        CLOUDY    14   9  80 CALM      30.64R
NEBRASKA CITY  CLOUDY    15   7  72 S3        30.63R
BEATRICE       CLOUDY    16  10  78 SE5       30.61R WCI   9
FALLS CITY     CLOUDY    15  11  83 CALM      30.65R

...NORTHERN KANSAS...

CITY           SKY/WX    TMP DP  RH WIND       PRES   REMARKS
GOODLAND       CLOUDY    17  10  74 S16       30.23F WCI   2
HILL CITY      CLOUDY    21  10  62 S13G21    30.43S WCI   9
NORTON         CLOUDY    18   9  68 SE8       30.39R WCI   7
PHILLIPSBURG   CLOUDY    19  12  73 SE12      30.46S WCI   7
SMITH CENTER   CLOUDY    18  10  73 SE13      30.49S WCI   4
BELOIT         CLOUDY    19  10  68 SE10      30.54S WCI   8
HAYS           CLOUDY    21  11  65 S16       30.46F WCI   7
RUSSELL        CLOUDY    20  11  68 S20       30.48S WCI   4
CONCORDIA      CLOUDY    20  12  71 SE13      30.55F WCI   7
SALINA         CLOUDY    22  14  71 SE12      30.59S WCI  10
TOPEKA         CLOUDY    21  14  74 SE7       30.66S WCI  12



USA.gov is the U.S. government's official web portal to all federal, state and local government web resources and services.